FW1934 Weather Reports


Display with metric or nautical units.
time (UTC)temp
F
wind
direction
speed
MPH
gust
MPH
rain 1hr
in
rain 24hr
in
rain mn
in
humidity
%
barometer
mb
20190418203016 60 98 4.0 11.0 0.00 0.04 0.04 67 1023.0
20190418202021 61 337 1.0 3.0 0.00 0.04 0.04 65 1023.1
20190418201026 61 315 0.0 2.0 0.00 0.04 0.04 64 1023.1
20190418200031 61 0.0 0.0 0.00 0.04 0.04 63 1023.3
20190418195017 61 315 0.0 1.0 0.00 0.04 0.04 63 1023.3
20190418194023 61 358 0.0 1.0 0.00 0.04 0.04 59 1023.4
20190418193027 62 0.0 0.0 0.00 0.04 0.04 61 1023.6
20190418192032 60 353 1.0 2.0 0.00 0.04 0.04 64 1023.7
20190418191019 60 109 2.0 2.0 0.00 0.04 0.04 62 1023.7
20190418190024 60 60 0.0 1.0 0.00 0.04 0.04 65 1023.8
20190418185029 60 315 1.0 3.0 0.00 0.04 0.04 62 1023.9
20190418184016 59 315 2.0 4.0 0.00 0.04 0.04 65 1024.0
20190418183021 59 130 1.0 2.0 0.00 0.04 0.04 70 1023.9
20190418182026 58 343 1.0 3.0 0.00 0.04 0.04 72 1023.9
20190418181031 57 339 0.0 1.0 0.00 0.04 0.04 79 1024.1
20190418180018 56 0.0 1.0 0.00 0.04 0.04 85 1024.1
20190418175023 57 90 0.0 1.0 0.00 0.04 0.04 83 1024.3
20190418174028 56 341 0.0 2.0 0.00 0.04 0.04 85 1024.5
20190418173033 55 315 0.0 1.0 0.00 0.04 0.04 87 1024.3
20190418172019 54 0.0 0.0 0.00 0.04 0.04 89 1024.2
20190418171029 52 329 1.0 2.0 0.00 0.04 0.04 89 1024.3
20190418170030 54 10 0.0 1.0 0.00 0.04 0.04 89 1024.2
20190418165016 53 0.0 0.0 0.00 0.04 0.04 90 1024.4
20190418164021 53 0.0 0.0 0.00 0.04 0.04 91 1024.4
20190418163026 52 315 0.0 1.0 0.00 0.04 0.04 91 1024.4
20190418162031 52 0.0 0.0 0.00 0.04 0.04 91 1024.5
20190418161018 52 0.0 0.0 0.01 0.04 0.04 92 1024.7
20190418160023 52 0.0 0.0 0.01 0.04 0.04 92 1024.8
20190418155028 51 0.0 0.0 0.02 0.04 0.04 94 1024.8
20190418154015 50 0.0 0.0 0.03 0.04 0.04 95 1024.7
20190418153019 49 315 0.0 1.0 0.03 0.04 0.04 95 1024.9
20190418152024 48 325 1.0 3.0 0.03 0.04 0.04 94 1025.0
20190418151030 48 0.0 0.0 0.03 0.03 0.03 95 1025.0
20190418150016 48 0.0 0.0 0.03 0.03 0.03 94 1025.0
20190418145021 48 322 0.0 1.0 0.02 0.02 0.02 93 1025.0
20190418144026 48 0.0 0.0 0.01 0.01 0.01 91 1024.9
20190418143025 48 345 0.0 2.0 0.01 0.01 0.01 90 1024.9
20190418142018 49 353 1.0 1.0 0.01 0.01 0.01 89 1024.8
20190418141023 49 0.0 1.0 0.00 0.00 0.00 89 1024.7
20190418140022 50 0.0 0.0 0.00 0.00 0.00 88 1024.5
20190418135015 50 0.0 0.0 0.00 0.00 0.00 89 1024.4
20190418134019 50 0 0.0 1.0 0.00 0.00 0.00 89 1024.3
20190418133018 50 40 0.0 1.0 0.00 0.00 0.00 87 1024.4
20190418132017 50 0.0 0.0 0.00 0.00 0.00 88 1024.4
20190418131016 50 0.0 0.0 0.00 0.00 0.00 89 1024.5
20190418130015 50 0.0 0.0 0.00 0.00 0.00 88 1024.7
20190418125026 50 0.0 0.0 0.00 0.00 0.00 87 1024.5
20190418124031 50 0.0 0.0 0.00 0.00 0.00 89 1024.4
20190418123018 50 0.0 0.0 0.00 0.00 0.00 88 1024.5
20190418122023 50 0.0 0.0 0.00 0.00 0.00 89 1024.5
20190418121028 50 315 0.0 1.0 0.00 0.00 0.00 87 1024.5
20190418120014 50 0.0 0.0 0.00 0.00 0.00 87 1024.6
20190418115019 50 0.0 0.0 0.00 0.00 0.00 87 1024.6
20190418114024 50 20 0.0 1.0 0.00 0.00 0.00 87 1024.6
20190418113029 50 0.0 0.0 0.00 0.00 0.00 88 1024.7
20190418112017 50 0.0 0.0 0.00 0.00 0.00 88 1024.8
20190418111021 50 11 0.0 1.0 0.00 0.00 0.00 88 1024.8
20190418110026 50 0.0 0.0 0.00 0.00 0.00 88 1024.9
20190418105031 49 0.0 0.0 0.00 0.00 0.00 88 1025.0
20190418104018 49 0.0 0.0 0.00 0.00 0.00 89 1025.2
20190418103023 49 0.0 0.0 0.00 0.00 0.00 89 1025.2
20190418102028 49 0.0 0.0 0.00 0.00 0.00 89 1025.3
20190418101015 49 0.0 0.0 0.00 0.00 0.00 89 1025.4
20190418100020 49 0.0 0.0 0.00 0.00 0.00 89 1025.5
20190418095024 50 0.0 0.0 0.00 0.00 0.00 89 1025.7
20190418094029 50 0.0 0.0 0.00 0.00 0.00 89 1025.7
20190418093016 50 0.0 1.0 0.00 0.00 0.00 89 1025.8
20190418092021 50 0.0 0.0 0.00 0.00 0.00 89 1025.9
20190418091026 50 0.0 0.0 0.00 0.00 0.00 88 1025.9
20190418090031 50 0.0 0.0 0.00 0.00 0.00 88 1026.2
20190418085018 50 0.0 0.0 0.00 0.00 0.00 87 1026.3
20190418084023 50 0.0 0.0 0.00 0.00 0.00 87 1026.6
20190418083029 50 0.0 0.0 0.00 0.00 0.00 87 1026.7
20190418082014 50 0.0 0.0 0.00 0.00 0.00 87 1026.7
20190418081021 50 0.0 0.0 0.00 0.00 0.00 87 1026.8
20190418080024 50 0.0 0.0 0.00 0.00 0.00 88 1027.0
20190418075029 50 0.0 0.0 0.00 0.00 0.00 88 1027.0
20190418074016 50 0.0 0.0 0.00 0.00 0.00 88 1027.0
20190418073023 50 0.0 0.0 0.00 0.00 0.00 88 1027.0
20190418072026 50 0.0 0.0 0.00 0.00 0.00 88 1027.1
20190418071031 50 0.0 0.0 0.00 0.00 0.00 86 1027.0
20190418070018 51 0.0 0.0 0.00 0.00 0.00 86 1027.1
20190418065023 51 0.0 0.0 0.00 0.00 0.00 86 1027.2
20190418064028 51 0.0 0.0 0.00 0.00 0.00 87 1027.2
20190418063014 51 0.0 0.0 0.00 0.00 0.00 86 1027.1
20190418062020 51 0.0 0.0 0.00 0.00 0.00 86 1027.1
20190418061024 51 0.0 0.0 0.00 0.00 0.00 85 1026.9
20190418060029 51 0.0 0.0 0.00 0.00 0.00 83 1027.0
20190418055016 51 0.0 0.0 0.00 0.00 0.00 81 1026.9
20190418054021 51 0.0 0.0 0.00 0.00 0.00 83 1027.0
20190418053026 51 0.0 0.0 0.00 0.00 0.00 84 1026.9
20190418052025 51 350 0.0 1.0 0.00 0.00 0.00 84 1026.9
20190418051017 51 0.0 0.0 0.00 0.00 0.00 85 1026.9
20190418050023 52 0.0 0.0 0.00 0.00 0.00 84 1026.8
20190418045021 52 0.0 0.0 0.00 0.00 0.00 84 1026.8
20190418044015 52 0.0 0.0 0.00 0.00 0.00 84 1026.7
20190418043020 52 0.0 0.0 0.00 0.00 0.00 84 1026.7
20190418042018 52 0.0 0.0 0.00 0.00 0.00 84 1026.7
20190418041017 52 0.0 0.0 0.00 0.00 0.00 83 1026.7
20190418040016 53 0.0 0.0 0.00 0.00 0.00 82 1026.4
20190418035015 53 0.0 0.0 0.00 0.00 0.00 81 1026.4
20190418034026 53 0.0 0.0 0.00 0.00 0.00 81 1026.4
20190418033031 54 0.0 0.0 0.00 0.00 0.00 80 1026.4
20190418032018 54 0.0 0.0 0.00 0.00 0.00 80 1026.4
20190418031022 54 0.0 0.0 0.00 0.00 0.00 78 1026.4
20190418030027 54 0.0 0.0 0.00 0.00 0.00 78 1026.3
20190418025033 55 0.0 0.0 0.00 0.00 0.00 78 1026.3
20190418024019 55 6 0.0 1.0 0.00 0.00 0.00 75 1026.3
20190418023024 56 0.0 0.0 0.00 0.00 0.00 74 1026.3
20190418022029 56 340 1.0 2.0 0.00 0.00 0.00 73 1026.2
20190418021016 56 0.0 0.0 0.00 0.00 0.00 73 1026.2
20190418020021 57 0.0 0.0 0.00 0.00 0.00 70 1026.3
20190418015026 57 44 1.0 3.0 0.00 0.00 0.00 68 1026.3
20190418014031 57 202 0.0 2.0 0.00 0.00 0.00 68 1026.3
20190418013018 58 332 1.0 2.0 0.00 0.00 0.00 67 1026.3
20190418012023 58 45 0.0 1.0 0.00 0.00 0.00 68 1026.2
20190418011027 59 308 2.0 3.0 0.00 0.00 0.00 67 1026.2
20190418010032 61 329 1.0 3.0 0.00 0.00 0.00 59 1026.1
20190418005019 61 315 0.0 2.0 0.00 0.00 0.00 63 1026.2
20190418004024 60 315 1.0 2.0 0.00 0.00 0.00 64 1026.2
20190418003029 62 343 1.0 2.0 0.00 0.00 0.00 64 1026.2
20190418002016 60 323 1.0 2.0 0.00 0.00 0.00 66 1026.2
20190418001021 60 227 0.0 2.0 0.00 0.00 0.00 64 1026.2
20190418000026 59 262 1.0 2.0 0.00 0.00 0.00 65 1026.2
20190417235031 59 229 1.0 2.0 0.00 0.00 0.00 68 1026.3
20190417234017 59 311 1.0 2.0 0.00 0.00 0.00 68 1026.3
20190417233022 60 198 1.0 2.0 0.00 0.00 0.00 65 1026.3
20190417232028 61 194 2.0 3.0 0.00 0.00 0.00 63 1026.3
20190417231032 60 251 1.0 2.0 0.00 0.00 0.00 64 1026.4
20190417230019 59 306 1.0 4.0 0.00 0.00 0.00 68 1026.6
20190417225024 60 222 1.0 2.0 0.00 0.00 0.00 69 1026.4
20190417224029 59 315 0.0 2.0 0.00 0.00 0.00 70 1026.7
20190417223016 61 346 1.0 2.0 0.00 0.00 0.00 66 1026.6
20190417222021 58 318 2.0 4.0 0.00 0.00 0.00 71 1026.6
20190417221026 59 343 1.0 3.0 0.00 0.00 0.00 70 1026.6
20190417220030 59 13 2.0 4.0 0.00 0.00 0.00 69 1026.6
20190417215017 58 336 2.0 4.0 0.00 0.00 0.00 69 1026.4
20190417214022 59 323 2.0 4.0 0.00 0.00 0.00 68 1026.6
20190417213028 58 168 2.0 4.0 0.00 0.00 0.00 71 1026.7
20190417212032 58 197 2.0 2.0 0.00 0.00 0.00 71 1026.7
20190417211019 57 320 2.0 4.0 0.00 0.00 0.00 72 1026.7
20190417210024 56 200 1.0 3.0 0.00 0.00 0.00 73 1026.7
20190417205029 56 306 2.0 4.0 0.00 0.00 0.00 75 1026.6
20190417204016 59 239 2.0 4.0 0.00 0.00 0.00 70 1026.6